TimeEST,TemperatureF,Dew PointF,Humidity,Sea Level PressureIn,VisibilityMPH,Wind Direction,Wind SpeedMPH,Gust SpeedMPH,PrecipitationIn,Events,Conditions,WindDirDegrees,DateUTC
12:52 AM,36.0,23.0,59,29.71,10.0,WNW,9.2,-,N/A,,Overcast,300,2013-03-02 05:52:00
1:52 AM,35.1,21.9,59,29.71,10.0,NW,6.9,-,N/A,,Overcast,320,2013-03-02 06:52:00
2:52 AM,35.1,21.9,59,29.70,10.0,WNW,5.8,-,N/A,,Overcast,300,2013-03-02 07:52:00
3:52 AM,35.1,23.0,61,29.70,10.0,WNW,3.5,-,N/A,,Overcast,300,2013-03-02 08:52:00
4:52 AM,34.0,24.1,67,29.71,10.0,WNW,4.6,-,N/A,,Overcast,300,2013-03-02 09:52:00
5:52 AM,34.0,24.1,67,29.71,10.0,WNW,4.6,-,N/A,,Overcast,290,2013-03-02 10:52:00
6:52 AM,34.0,24.1,67,29.71,10.0,West,6.9,-,N/A,,Overcast,280,2013-03-02 11:52:00
7:52 AM,34.0,23.0,64,29.72,10.0,Variable,5.8,-,N/A,,Overcast,0,2013-03-02 12:52:00
8:52 AM,35.1,23.0,61,29.71,10.0,WNW,5.8,-,N/A,,Overcast,300,2013-03-02 13:52:00
9:52 AM,36.0,23.0,59,29.70,10.0,NW,6.9,-,N/A,,Overcast,310,2013-03-02 14:52:00
10:52 AM,37.0,21.9,54,29.70,10.0,NNW,10.4,-,N/A,,Overcast,340,2013-03-02 15:52:00
11:52 AM,37.9,23.0,55,29.68,10.0,North,10.4,-,N/A,,Overcast,350,2013-03-02 16:52:00
12:52 PM,37.9,24.1,57,29.67,10.0,WNW,8.1,-,N/A,,Overcast,290,2013-03-02 17:52:00
1:52 PM,39.0,23.0,53,29.66,10.0,West,5.8,-,N/A,,Overcast,280,2013-03-02 18:52:00
2:52 PM,39.0,23.0,53,29.65,10.0,Variable,4.6,-,N/A,,Overcast,0,2013-03-02 19:52:00
3:52 PM,39.0,24.1,55,29.65,10.0,Variable,5.8,-,N/A,,Overcast,0,2013-03-02 20:52:00
4:52 PM,37.9,23.0,55,29.65,10.0,NW,5.8,-,N/A,,Overcast,310,2013-03-02 21:52:00
5:52 PM,37.0,23.0,57,29.67,10.0,WNW,5.8,-,N/A,,Overcast,300,2013-03-02 22:52:00
6:52 PM,37.0,23.0,57,29.68,10.0,NW,4.6,-,N/A,,Overcast,320,2013-03-02 23:52:00
7:52 PM,37.0,24.1,59,29.68,10.0,Variable,4.6,-,N/A,,Overcast,0,2013-03-03 00:52:00
8:52 PM,36.0,24.1,62,29.69,10.0,NNW,9.2,-,N/A,,Overcast,330,2013-03-03 01:52:00
9:52 PM,35.1,24.1,64,29.69,10.0,Variable,3.5,-,N/A,,Overcast,0,2013-03-03 02:52:00
10:52 PM,35.1,23.0,61,29.68,10.0,NW,8.1,-,N/A,,Overcast,320,2013-03-03 03:52:00
11:52 PM,34.0,21.9,61,29.67,10.0,NNW,8.1,-,N/A,,Overcast,330,2013-03-03 04:52:00